Lanai City, HI

5:43 PM HST on January 16, 2018 (GMT -1000)
Lanai City

Weather History for PHNY - April, 2014

Change the Weather History Date:

Tuesday, April 1, 2014

  Actual Average Record
Temperature  
Mean Temperature 72 °F -  
Max Temperature 80 °F 77 °F 82 °F (1981)
Min Temperature 65 °F 61 °F 55 °F (1990)
Cooling Degree Days 8    
Growing Degree Days 22 (Base 50)    
Moisture  
Dew Point 67 °F    
Average Humidity 85    
Maximum Humidity 100    
Minimum Humidity 65    
Precipitation  
Precipitation 0.00 in - - ()
Sea Level Pressure  
Sea Level Pressure 30.04 in    
Wind  
Wind Speed 11 mph (ENE)    
Max Wind Speed 20 mph    
Max Gust Speed 26 mph    
Visibility 10 miles    
Events      
Averages and records for this station are not official NWS values.
T = Trace of Precipitation, MM = Missing Value Source: NWS Daily Summary

Daily Weather History Graph

Daily Weather History Graph

Search for Another Location

Airport or City:

Trip Planner

Search our weather history database for the weather conditions in past years. The results will help you decide how hot, cold, wet, or windy it might be!

Date:

Astronomy

Apr. 01, 2014 Rise Set
Actual Time 6:20 AM HST 6:42 PM HST
Civil Twilight 5:58 AM HST 7:04 PM HST
Nautical Twilight 5:32 AM HST 7:30 PM HST
Astronomical Twilight 5:06 AM HST 7:56 PM HST
Moon 7:47 AM HST (4/1) 8:57 PM HST (4/1)
Length of Visible Light 13h 06m
Length of Day
12h 21m
Waxing Crescent, 6% of the Moon is Illuminated
Apr 1
Waxing Crescent
Apr 6
First Quarter
Apr 14
Full
Apr 21
Last Quarter
Apr 28
New

Hourly Weather History & Observations

Time (HST) Temp. Heat Index Dew Point Humidity Pressure Visibility Wind Dir Wind Speed Gust Speed Precip Events Conditions
12:56 AM 68.9 °F - 66.9 °F 93% 30.01 in 10.0 mi NE 12.7 mph - N/A   Clear
1:56 AM 68.9 °F - 66.9 °F 93% 30.00 in 10.0 mi East 13.8 mph - N/A   Clear
2:56 AM 68.9 °F - 68.0 °F 97% 29.98 in 10.0 mi NE 12.7 mph - N/A   Clear
3:56 AM 66.9 °F - 66.9 °F 100% 29.98 in 10.0 mi ENE 5.8 mph - N/A   Clear
4:56 AM 65.8 °F - 65.8 °F 100% 29.99 in 10.0 mi NNE 8.1 mph - N/A   Clear
5:56 AM 66.9 °F - 66.9 °F 100% 30.01 in 10.0 mi East 9.2 mph - N/A   Clear
6:19 AM 66.2 °F - 66.2 °F 100% 30.07 in 10.0 mi NE 4.6 mph - N/A   Mostly Cloudy
6:56 AM 68.9 °F - 68.9 °F 100% 30.04 in 10.0 mi NE 12.7 mph - N/A   Overcast
7:26 AM 69.8 °F - 68.0 °F 94% 30.10 in 10.0 mi ENE 6.9 mph - N/A   Mostly Cloudy
7:56 AM 73.4 °F - 68.0 °F 83% 30.10 in 10.0 mi NNE 9.2 mph - N/A   Mostly Cloudy
8:56 AM 75.9 °F - 68.0 °F 76% 30.06 in 10.0 mi ENE 10.4 mph - N/A   Partly Cloudy
9:56 AM 77.9 °F - 68.0 °F 71% 30.05 in 10.0 mi South 4.6 mph - N/A   Scattered Clouds
10:20 AM 75.2 °F - 66.2 °F 73% 30.12 in 10.0 mi North 11.5 mph - N/A   Overcast
10:47 AM 78.8 °F - 68.0 °F 69% 30.10 in 10.0 mi NNE 17.3 mph - N/A   Scattered Clouds
10:56 AM 77.0 °F - 68.0 °F 74% 30.04 in 10.0 mi NNE 18.4 mph - N/A   Partly Cloudy
11:47 AM 73.4 °F - 68.0 °F 83% 30.10 in 10.0 mi South 8.1 mph - N/A   Overcast
11:56 AM 73.9 °F - 68.9 °F 84% 30.04 in 10.0 mi South 8.1 mph - N/A   Overcast
12:25 PM 78.8 °F - 66.2 °F 65% 30.09 in 10.0 mi South 5.8 mph - N/A   Overcast
12:56 PM 77.9 °F - 66.9 °F 69% 30.01 in 10.0 mi South 8.1 mph - N/A   Mostly Cloudy
1:56 PM 80.6 °F 83.2 °F 68.0 °F 65% 30.05 in 10.0 mi North 8.1 mph - N/A   Overcast
2:56 PM 75.9 °F - 66.9 °F 74% 29.99 in 10.0 mi South 5.8 mph - N/A   Overcast
3:36 PM 73.4 °F - 69.8 °F 88% 30.04 in 10.0 mi NE 12.7 mph - N/A   Overcast
3:56 PM 74.8 °F - 68.0 °F 79% 29.99 in 10.0 mi NNE 15.0 mph - N/A   Mostly Cloudy
4:08 PM 73.4 °F - 68.0 °F 83% 30.04 in 10.0 mi NE 18.4 mph - N/A   Scattered Clouds
4:56 PM 72.9 °F - 66.9 °F 82% 29.99 in 10.0 mi NE 18.4 mph 26.5 mph N/A   Clear
5:56 PM 72.0 °F - 66.9 °F 84% 30.01 in 10.0 mi NE 19.6 mph 26.5 mph N/A   Clear
6:56 PM 70.0 °F - 66.9 °F 90% 30.01 in 10.0 mi NE 12.7 mph - N/A   Clear
7:56 PM 70.0 °F - 66.9 °F 90% 30.04 in 10.0 mi East 11.5 mph - N/A   Clear
8:56 PM 68.9 °F - 68.0 °F 97% 30.04 in 10.0 mi NE 15.0 mph - N/A   Clear
9:56 PM 68.9 °F - 66.9 °F 93% 30.06 in 10.0 mi NE 16.1 mph 19.6 mph N/A   Clear
10:56 PM 68.9 °F - 66.9 °F 93% 30.06 in 10.0 mi ENE 8.1 mph - N/A   Clear
11:56 PM 68.9 °F - 65.8 °F 90% 30.06 in 10.0 mi NE 12.7 mph - N/A   Clear